Weather History for Zanesville, OH

Change the Weather History Date:

Monday, January 14, 2013

  Actual Average Record
Temperature  
Mean Temperature 36 °F 28 °F  
Max Temperature 43 °F 37 °F 67 °F (1995)
Min Temperature 28 °F 20 °F -1 °F (1964)
Degree Days  
Heating Degree Days 29 36  
Month to date heating degree days 427 504  
Since 1 July heating degree days 2533 2649  
Cooling Degree Days 0 0  
Month to date cooling degree days 0 0  
Year to date cooling degree days 0 0  
Moisture  
Dew Point 28 °F    
Average Humidity 80    
Maximum Humidity 96    
Minimum Humidity 64    
Precipitation  
Precipitation T in 0.08 in 1.41 in (1951)
Month to date precipitation 0.80 1.25  
Year to date precipitation 0.80 1.25  
Sea Level Pressure  
Sea Level Pressure 30.27 in    
Wind  
Wind Speed 7 mph (NNW)    
Max Wind Speed 16 mph    
Max Gust Speed 24 mph    
Visibility 10 miles    
Events      
T = Trace of Precipitation, MM = Missing Value Source: NWS Daily Summary

Daily Weather History Graph

Daily Weather History Graph

Search for Another Location

Airport:

Trip Planner

Search our weather history database for the weather conditions in past years. The results will help you decide how hot, cold, wet, or windy it might be!

Date:

Astronomy

Jan. 14, 2013 Rise Set
Actual Time 7:47 AM EST 5:26 PM EST
Civil Twilight 7:17 AM EST 5:55 PM EST
Nautical Twilight 6:44 AM EST 6:29 PM EST
Astronomical Twilight 6:12 AM EST 7:01 PM EST
Moon 9:20 AM EST (1/14) 9:09 PM EST (1/14)
Length of Visible Light 10h 38m
Length of Day
9h 38m
Waxing Crescent, 11% of the Moon is Illuminated
Jan 14
Waxing Crescent
Jan 18
First Quarter
Jan 26
Full
Feb 3
Last Quarter
Feb 10
New

Hourly Weather History & Observations

Time (EST) Temp. Windchill Dew Point Humidity Pressure Visibility Wind Dir Wind Speed Gust Speed Precip Events Conditions
12:06 AM 42.8 °F 35.8 °F 39.2 °F 87% 30.03 in 3.0 mi NW 13.8 mph 24.2 mph N/A   Overcast
12:44 AM 41.0 °F 35.8 °F 37.4 °F 87% 30.04 in 10.0 mi WNW 8.1 mph - 0.00 in   Overcast
12:53 AM 41.0 °F 33.9 °F 37.9 °F 89% 30.05 in 10.0 mi NW 12.7 mph - 0.00 in   Overcast
1:09 AM 41.0 °F 35.2 °F 37.4 °F 87% 30.06 in 10.0 mi NW 9.2 mph 18.4 mph N/A   Overcast
1:53 AM 41.0 °F 35.8 °F 37.0 °F 86% 30.09 in 10.0 mi WNW 8.1 mph - N/A   Overcast
2:53 AM 39.9 °F 34.5 °F 36.0 °F 86% 30.13 in 10.0 mi NW 8.1 mph - N/A   Overcast
3:13 AM 39.2 °F 33.0 °F 35.6 °F 87% 30.14 in 10.0 mi WNW 9.2 mph - N/A   Overcast
3:53 AM 39.0 °F 32.3 °F 34.0 °F 82% 30.15 in 10.0 mi WNW 10.4 mph - N/A   Overcast
4:53 AM 37.0 °F 29.8 °F 30.9 °F 79% 30.18 in 10.0 mi WNW 10.4 mph - N/A   Overcast
5:53 AM 35.1 °F 27.9 °F 28.9 °F 78% 30.22 in 10.0 mi West 9.2 mph - N/A   Overcast
6:53 AM 33.1 °F 27.7 °F 27.0 °F 78% 30.27 in 10.0 mi WNW 5.8 mph - N/A   Mostly Cloudy
7:37 AM 32.0 °F 27.5 °F 26.6 °F 80% 30.27 in 10.0 mi West 4.6 mph - N/A   Scattered Clouds
7:53 AM 30.9 °F 25.2 °F 26.1 °F 82% 30.29 in 10.0 mi WNW 5.8 mph - N/A   Scattered Clouds
8:53 AM 33.1 °F 26.1 °F 26.1 °F 75% 30.35 in 10.0 mi NW 8.1 mph - N/A   Mostly Cloudy
9:53 AM 33.1 °F 26.9 °F 25.0 °F 72% 30.35 in 10.0 mi Variable 6.9 mph - N/A   Mostly Cloudy
10:53 AM 32.0 °F 24.2 °F 24.1 °F 73% 30.37 in 10.0 mi North 9.2 mph - N/A   Mostly Cloudy
11:53 AM 32.0 °F 24.2 °F 25.0 °F 75% 30.36 in 10.0 mi NNW 9.2 mph - N/A   Overcast
12:53 PM 32.0 °F - 24.1 °F 73% 30.32 in 10.0 mi Calm Calm - N/A   Overcast
1:53 PM 33.1 °F 28.7 °F 25.0 °F 72% 30.31 in 10.0 mi NW 4.6 mph - N/A   Overcast
2:53 PM 33.1 °F 25.5 °F 25.0 °F 72% 30.33 in 10.0 mi NW 9.2 mph - N/A   Mostly Cloudy
3:53 PM 33.1 °F 26.9 °F 25.0 °F 72% 30.34 in 10.0 mi NW 6.9 mph - N/A   Clear
4:21 PM 33.8 °F 28.6 °F 24.8 °F 70% 30.32 in 10.0 mi NNW 5.8 mph - N/A   Mostly Cloudy
5:53 PM 32.0 °F 26.4 °F 24.1 °F 73% 30.41 in 10.0 mi NNE 5.8 mph - N/A   Scattered Clouds
6:13 PM 30.2 °F 25.4 °F 23.0 °F 75% 30.38 in 10.0 mi North 4.6 mph - N/A   Mostly Cloudy
6:53 PM 30.9 °F 25.2 °F 21.9 °F 69% 30.38 in 10.0 mi NNE 5.8 mph - N/A   Mostly Cloudy
7:01 PM 30.2 °F 24.3 °F 21.2 °F 69% 30.36 in 10.0 mi North 5.8 mph - N/A   Partly Cloudy
7:53 PM 30.9 °F 27.5 °F 23.0 °F 72% 30.38 in 10.0 mi NE 3.5 mph - N/A   Scattered Clouds
8:53 PM 30.9 °F 27.5 °F 23.0 °F 72% 30.40 in 10.0 mi North 3.5 mph - N/A   Clear
9:53 PM 30.0 °F 26.5 °F 23.0 °F 75% 30.35 in 10.0 mi NE 3.5 mph - N/A   Clear
10:53 PM 30.0 °F 26.5 °F 23.0 °F 75% 30.33 in 10.0 mi NNE 3.5 mph - N/A   Clear
11:53 PM 28.0 °F 24.2 °F 21.9 °F 78% 30.34 in 10.0 mi North 3.5 mph - N/A   Clear